Temp
24 27 28 29 29 29 29 29 30 28 28 28 29 28 28 27 27 25 22 21 22 21 19 18 18 18 18 18 18 18 17 17 17 17 17 16 17 17 17 17 17 16 16 16 16 15 15 15 15
24 26 30 30 29 28 29 29 29 29 28 28 27 27 27 27 25 22 21 21 21 21 20 19 18 18 18 18 18 17 17 16 17 17 17 16 16 17 17 17 17 17 16 16 15 15 15 15 14
25 25 29 28 28 28 28 28 29 28 27 27 27 27 27 26 23 22 22 21 21 21 20 19 18 18 18 18 17 17 17 17 17 17 17 16 16 17 17 17 17 16 16 16 15 15 14 14 14
26 29 29 27 28 29 28 27 29 27 27 27 28 28 25 23 23 22 21 21 22 20 19 18 18 18 18 18 17 17 17 16 17 17 16 16 16 16 16 17 17 16 15 15 15 15 14 14 14
26 28 26 26 27 28 27 26 27 28 28 28 27 28 27 22 21 21 21 21 21 19 20 17 18 18 18 17 17 17 17 17 17 16 16 16 16 16 16 16 16 16 15 15 15 14 14 14 15
27 28 26 25 27 28 28 26 26 28 28 27 27 27 27 22 21 20 20 20 20 19 20 18 17 18 17 17 17 17 17 17 17 16 16 15 15 15 15 16 16 16 15 15 14 14 14 15 15
26 27 26 27 27 28 27 26 26 26 27 27 27 27 26 22 21 19 19 21 21 21 20 18 17 17 17 17 17 17 16 16 17 16 16 15 15 15 15 15 15 16 15 15 14 14 15 15 15
25 27 26 27 27 27 26 25 26 26 27 24 26 27 26 24 19 18 19 21 21 20 20 20 18 17 17 16 17 17 17 17 17 16 15 15 14 14 15 15 15 15 15 15 15 15 15 15 15
25 25 25 26 26 27 27 26 25 24 25 23 24 25 23 22 18 17 19 20 21 20 20 20 19 19 18 17 16 16 16 16 16 16 15 15 15 14 14 15 15 15 15 15 15 14 15 15 15
25 25 26 28 28 28 28 26 27 25 25 25 24 23 21 19 18 18 19 20 21 20 19 20 19 19 19 18 16 16 16 16 15 15 15 16 16 15 15 15 14 15 15 15 15 15 15 15 15
24 24 27 27 28 28 27 26 26 25 26 27 28 27 22 19 18 19 19 19 20 20 20 19 19 19 19 18 17 17 16 17 16 15 15 16 16 15 14 14 14 14 15 14 15 15 15 15 16
22 24 26 26 26 24 25 27 26 26 26 27 27 27 24 22 19 19 19 19 20 20 19 19 19 19 18 18 18 18 17 17 16 16 16 15 15 15 15 15 15 14 14 15 15 15 15 15 15
22 23 25 25 24 23 24 23 24 25 27 27 26 24 25 23 21 20 19 19 20 20 20 19 19 18 18 18 18 18 18 17 17 16 15 15 15 15 15 15 15 15 15 15 15 15 15 15 15
23 22 24 24 24 23 22 23 24 24 25 27 25 25 25 25 23 21 20 20 19 20 20 19 19 18 18 17 18 18 17 17 17 17 16 15 16 15 15 15 15 15 15 15 16 16 15 15 15
20 20 22 23 23 23 23 22 22 24 24 24 25 25 26 25 24 22 21 19 19 19 20 19 18 18 18 17 17 17 17 17 17 16 16 15 16 16 16 15 15 15 15 15 15 15 15 15 15
18 19 20 23 23 23 22 22 25 26 24 24 25 26 26 25 24 24 22 20 19 18 20 19 18 18 18 17 17 17 17 16 16 16 16 15 15 16 15 16 15 15 15 15 15 15 15 15 16
16 17 19 21 23 23 21 22 25 26 25 25 25 26 27 27 26 24 23 22 21 19 20 19 18 17 17 17 17 17 17 16 16 16 16 15 15 15 16 15 15 15 15 15 15 16 16 16 16
16 16 19 19 22 21 21 21 23 25 24 24 25 26 27 27 27 26 24 23 22 20 20 20 19 17 17 17 17 17 16 16 16 16 16 16 15 15 15 15 15 15 15 15 15 15 15 16 16
19 18 20 22 22 18 20 21 23 24 24 24 24 25 26 26 27 26 26 23 22 21 20 20 19 18 17 17 17 17 17 16 16 16 16 16 15 15 15 15 15 15 15 15 15 15 15 15 15
17 17 16 19 21 18 20 21 23 24 24 24 25 25 25 26 26 26 25 24 22 21 20 20 19 18 17 17 17 17 17 17 16 16 16 16 15 15 15 15 15 15 15 15 15 15 15 15 15
17 15 15 17 20 20 20 20 21 23 23 24 25 25 26 26 26 27 26 25 22 21 20 20 19 19 18 17 17 17 17 17 17 16 16 15 15 15 15 15 15 15 15 15 15 15 14 15 15
16 18 16 15 16 17 21 18 23 25 26 26 25 24 25 25 26 26 27 25 23 21 20 20 20 19 19 18 17 17 17 17 17 17 16 16 15 15 15 14 15 15 15 15 15 15 14 14 15
17 18 16 15 15 15 17 16 20 23 24 25 26 24 25 25 25 26 26 26 25 22 20 20 20 20 19 19 17 17 17 17 17 17 17 16 15 14 15 14 15 14 15 15 14 14 14 14 15
17 14 14 14 14 14 16 18 21 22 24 25 26 26 26 26 25 25 26 26 25 24 21 20 20 20 19 19 18 17 17 17 17 18 17 17 15 15 14 15 15 15 14 14 14 14 14 14 14
14 14 14 14 14 15 20 18 20 23 25 25 26 26 26 26 26 25 25 25 25 24 22 20 20 20 19 19 18 17 18 17 18 18 18 17 16 15 15 15 14 14 15 14 14 14 14 14 14
13 13 15 16 16 19 19 18 21 24 24 25 24 25 24 25 25 24 23 23 23 23 22 20 19 19 19 19 18 18 17 17 17 18 18 18 16 16 16 15 15 15 15 14 14 14 14 14 14
16 12 15 14 15 14 17 20 23 24 23 22 23 23 24 24 24 23 23 22 22 21 21 21 20 19 19 19 18 18 17 17 17 17 18 18 17 17 16 16 15 15 15 14 14 14 14 13 13
17 18 14 13 15 15 18 21 22 24 24 24 23 23 23 24 24 23 22 22 22 22 21 20 20 19 19 19 18 18 18 17 17 17 17 18 17 17 17 16 15 15 15 14 14 14 14 13 13
16 16 17 16 16 16 18 20 24 24 26 26 25 24 24 23 23 23 23 22 21 21 20 20 19 19 19 18 18 18 18 18 17 17 17 17 17 17 16 16 16 15 15 14 14 14 13 12 12
17 16 16 14 14 15 17 19 24 24 23 23 23 22 22 21 21 22 21 20 19 19 18 18 19 18 18 18 18 18 17 17 17 17 17 17 17 16 16 16 15 15 14 14 14 13 13 12 12
Height
804 802 799 796 808 805 810 809 796 805 804 801 799 804 808 806 811 825 824 826 827 831 834 836 837 839 841 842 844 845 846 847 848 848 849 850 851 852 852 853 853 854 855 856 856 856 856 856 857
805 802 797 794 813 819 807 801 805 799 801 802 805 807 808 811 813 822 824 827 829 831 835 837 839 840 842 844 845 847 848 849 850 851 851 852 853 854 855 856 856 856 858 859 859 859 859 859 860
807 804 802 809 812 818 816 805 799 802 802 804 807 807 807 812 818 821 823 826 830 832 835 837 840 841 842 845 847 847 849 851 852 853 854 855 856 857 857 858 858 859 861 861 862 862 862 862 862
807 800 802 819 815 808 810 809 801 805 806 804 804 807 811 817 819 822 825 827 830 834 836 838 840 843 844 846 848 849 850 852 854 855 856 857 858 859 859 860 861 861 863 864 864 865 865 865 864
808 802 819 822 818 809 809 809 806 806 802 804 806 806 809 818 820 823 826 829 831 835 837 839 841 843 845 847 849 850 851 852 854 857 858 859 860 861 862 862 863 863 865 866 867 867 867 867 866
808 803 822 826 813 805 805 808 809 805 803 807 810 808 809 818 821 824 827 830 832 835 837 839 841 843 846 847 849 851 852 853 855 857 859 860 861 862 863 864 865 866 866 868 868 869 868 868 868
813 811 815 810 809 807 808 807 810 809 807 808 807 812 811 818 821 825 828 830 831 834 837 840 842 843 846 848 850 851 853 855 857 858 860 861 862 864 865 866 867 868 868 869 869 870 870 869 869
811 805 815 806 810 812 807 810 808 811 809 809 809 811 810 813 821 824 828 830 832 834 836 839 842 844 846 848 850 852 853 855 857 859 861 863 864 865 866 868 868 869 870 870 870 871 871 871 871
811 819 816 809 809 802 802 810 808 810 810 812 810 811 814 815 821 824 828 830 832 834 835 837 840 843 845 848 850 852 854 855 857 858 860 863 865 866 868 868 869 869 870 871 872 872 872 872 872
813 816 810 797 796 798 797 806 804 810 810 807 808 813 817 817 821 823 826 827 830 832 834 836 839 841 844 847 848 851 854 855 857 859 860 863 865 866 867 867 869 869 870 870 871 871 872 873 873
810 814 801 797 795 794 797 803 804 806 807 800 800 799 812 816 820 820 823 826 827 830 833 835 837 840 842 845 847 849 852 854 856 857 859 861 863 864 866 867 868 868 869 870 871 871 872 873 873
819 808 803 799 798 807 806 798 798 800 800 798 798 795 807 812 815 816 819 822 825 828 829 833 835 838 840 843 845 847 849 852 854 856 858 859 861 862 864 865 867 868 870 871 872 872 872 872 873
816 809 801 803 804 809 806 808 807 801 796 796 799 799 803 808 810 813 816 820 821 824 826 829 832 835 837 840 843 845 847 849 851 853 855 857 859 860 862 863 865 866 868 869 870 871 871 872 872
809 810 806 804 804 805 812 804 803 800 797 793 797 797 797 801 804 809 812 813 816 819 821 825 828 831 834 837 839 843 845 847 849 850 852 854 856 857 859 860 862 864 866 867 868 869 869 869 870
817 819 807 804 808 807 806 806 803 797 799 797 792 794 790 794 798 801 806 809 811 814 817 820 824 828 830 833 836 839 842 844 846 848 850 852 854 855 857 858 860 861 863 865 866 867 868 868 868
826 819 816 799 802 803 812 800 791 788 792 792 789 785 786 789 792 794 799 804 807 809 811 815 819 823 826 829 831 835 837 839 841 844 846 848 850 853 854 855 857 859 860 862 863 864 865 866 866
827 824 814 809 796 801 807 798 787 783 785 786 784 780 779 779 784 789 791 795 800 803 805 808 813 817 821 825 827 830 832 834 837 839 841 843 845 848 850 852 855 856 858 859 861 862 863 864 864
821 825 814 813 800 801 800 796 790 782 784 782 777 774 771 771 771 776 782 787 791 795 799 804 807 810 814 819 823 826 828 830 832 834 836 839 841 843 846 848 850 853 855 856 857 858 860 861 861
806 812 804 791 794 812 800 792 785 779 778 776 774 773 768 765 764 768 774 781 784 788 791 796 800 803 808 810 813 818 819 823 826 828 831 834 837 839 841 843 846 848 850 851 853 855 856 857 859
811 813 815 804 796 806 799 788 777 771 769 767 765 763 762 760 762 765 767 771 775 777 781 786 790 796 798 801 804 809 813 816 820 822 824 828 831 834 836 838 841 844 845 847 849 850 851 852 854
809 817 816 813 798 793 795 785 779 760 761 758 753 752 752 750 752 755 759 763 767 770 771 775 780 786 790 794 799 803 808 811 813 815 818 820 823 827 830 832 835 838 840 841 843 844 846 848 850
804 798 809 814 817 811 788 790 761 743 738 739 742 744 743 742 742 745 746 752 757 759 762 765 770 774 779 786 790 792 795 797 799 805 809 812 815 818 822 826 829 831 834 835 837 838 840 842 843
792 795 807 813 815 815 801 809 754 752 743 736 731 735 735 734 733 735 736 739 743 749 753 756 759 765 769 774 780 785 786 790 794 798 801 804 807 810 814 817 820 822 825 827 830 832 833 835 837
796 810 811 812 818 811 793 786 751 744 730 730 723 723 724 724 726 726 729 731 735 738 743 749 753 755 760 765 768 773 775 780 786 789 793 795 798 801 803 807 810 813 816 819 821 824 826 827 830
802 811 810 808 810 792 764 777 750 724 721 719 717 716 716 716 718 719 721 724 727 730 733 738 741 744 749 753 758 762 766 771 776 780 784 787 790 792 793 797 801 804 808 811 814 816 818 820 821
797 803 793 787 786 766 755 765 735 717 712 713 713 714 713 711 713 714 714 719 722 724 727 731 733 735 741 745 748 752 757 762 766 771 775 779 781 783 786 788 792 795 798 802 806 808 810 812 813
780 796 788 797 784 796 772 739 723 715 712 714 712 711 710 708 707 711 711 714 715 716 719 721 725 727 731 734 738 743 747 751 755 760 766 769 772 776 779 781 783 786 790 793 797 799 801 804 806
772 769 788 789 777 774 754 738 720 708 712 708 709 707 705 704 703 704 706 708 708 709 711 716 717 718 722 727 729 732 737 741 746 752 755 758 762 767 771 774 777 779 782 785 789 791 793 795 797
771 770 767 770 768 762 754 727 701 705 699 692 693 697 699 700 699 699 700 703 703 705 705 705 708 710 713 717 720 725 727 731 735 740 744 748 753 757 762 764 768 770 773 777 780 782 785 786 789
755 760 765 770 769 764 749 724 701 700 701 701 698 698 698 701 699 697 700 702 699 700 703 704 702 702 704 710 712 714 718 722 725 729 732 737 742 747 751 756 759 762 765 768 771 774 776 778 781
Wind_Speed
21 15 9 6 5 3 3 3 1 5 4 3 4 2 7 5 9 4 9 7 14 15 13 14 16 15 14 14 13 12 11 12 11 10 10 12 14 14 14 15 17 18 15 15 16 18 18 18 17
20 14 4 4 6 5 2 3 2 4 6 5 4 2 2 5 5 7 11 11 14 15 14 13 15 15 14 13 12 12 11 12 10 10 10 12 13 13 13 15 14 14 15 15 16 17 17 17 16
14 9 5 6 4 7 6 4 2 5 7 5 3 2 3 3 4 10 8 17 15 15 14 14 16 15 14 13 13 12 11 11 11 10 10 11 12 14 13 13 14 14 14 15 16 15 16 15 14
8 2 2 7 11 3 5 5 3 6 3 2 1 3 4 3 3 7 12 18 15 14 13 15 15 14 13 13 13 12 11 12 11 11 11 11 12 13 13 13 14 13 14 15 15 15 14 13 13
4 3 6 11 10 4 2 3 7 7 4 5 4 1 1 5 6 9 16 16 15 13 12 14 14 14 13 13 13 12 13 13 12 11 10 11 12 13 13 14 13 12 14 13 13 13 13 12 12
6 4 6 12 16 4 3 4 4 8 1 3 3 2 3 8 9 11 15 15 15 13 12 13 14 13 13 13 13 12 12 12 11 12 11 10 12 12 12 13 13 12 13 12 12 11 11 11 11
12 7 13 14 14 9 3 1 5 8 6 4 3 3 4 8 10 13 14 15 15 14 13 12 12 13 13 12 13 12 13 14 10 11 12 11 11 12 11 12 12 12 12 11 11 10 10 10 10
6 10 16 13 13 15 4 3 1 7 6 4 2 3 2 12 13 14 14 15 14 14 14 13 14 13 13 12 13 11 13 14 9 9 11 12 11 11 12 11 10 11 11 10 9 8 8 8 8
3 9 13 18 15 14 8 5 4 2 6 2 4 4 3 16 15 15 15 15 15 14 15 15 15 14 14 13 13 13 13 14 10 11 12 11 9 8 11 9 11 10 10 9 8 7 6 6 6
8 11 18 15 14 12 11 10 7 6 9 8 8 5 5 15 16 18 19 19 19 17 16 16 16 16 15 13 13 14 14 13 11 10 13 10 9 9 9 12 13 11 11 9 8 7 6 5 1
8 16 15 16 13 14 16 14 6 7 10 9 11 12 11 14 17 19 20 19 20 18 17 17 17 16 16 15 16 17 16 14 14 13 14 12 12 11 9 10 12 12 12 8 7 7 4 4 3
11 14 17 14 11 11 16 18 22 14 16 3 5 1 13 14 18 22 21 22 21 21 20 18 18 18 17 16 17 17 17 16 15 14 15 15 14 15 13 12 11 11 11 9 7 6 5 4 4
13 18 13 14 11 11 10 13 16 18 16 14 6 6 11 14 18 20 21 20 20 22 22 21 20 19 19 18 17 16 17 17 16 15 16 15 15 16 15 13 13 12 11 10 8 7 6 5 5
6 9 18 14 14 13 12 18 15 10 13 16 11 12 12 15 19 19 22 24 23 23 23 22 22 21 20 19 18 17 16 16 16 16 17 17 16 16 16 15 14 13 12 10 9 8 8 7 7
8 12 13 17 15 12 10 21 23 16 18 15 18 15 13 14 18 23 24 25 25 25 23 23 23 22 21 20 19 18 17 16 17 17 17 18 17 16 16 15 14 14 13 12 10 9 8 8 7
6 10 16 18 17 15 9 24 16 17 22 24 22 19 15 15 19 21 23 25 25 25 26 25 24 24 23 22 21 19 17 18 18 18 18 20 19 17 17 16 15 14 14 13 12 11 10 10 9
8 11 18 20 18 13 16 19 16 19 19 18 20 22 22 21 20 21 24 26 26 27 27 28 27 25 25 23 22 21 20 21 20 20 20 21 22 20 18 17 15 15 14 14 13 12 12 10 11
7 10 16 17 13 14 20 23 20 16 15 16 18 20 21 23 25 28 27 27 27 27 27 28 28 27 26 24 23 22 21 22 22 22 22 21 22 22 21 18 17 17 16 15 15 14 13 13 12
15 12 20 19 16 3 19 22 23 21 22 22 20 20 19 20 22 27 27 28 28 27 28 30 31 31 28 29 28 26 25 24 24 24 23 22 22 23 23 21 18 19 19 18 17 15 15 14 12
18 15 17 18 14 10 19 24 23 23 21 23 21 23 23 22 21 21 27 29 30 32 32 32 34 33 33 31 30 28 26 25 24 24 24 25 25 26 25 23 21 20 20 20 19 18 17 16 15
20 14 13 17 11 17 17 25 25 29 26 25 23 21 23 22 22 22 24 28 29 32 35 36 36 36 36 33 29 26 23 23 24 26 27 29 29 28 28 26 23 22 22 21 22 22 20 16 16
21 19 18 16 11 11 10 12 20 24 21 22 21 20 22 22 21 20 21 27 32 34 37 36 37 40 38 36 32 32 29 27 29 28 28 27 30 31 31 29 27 26 24 24 23 23 23 21 18
22 14 11 10 14 10 16 7 16 19 24 22 20 19 20 20 18 20 21 28 33 35 36 38 41 39 39 38 37 33 32 31 26 27 27 29 29 34 32 32 32 30 29 28 26 24 25 24 22
4 5 7 10 12 11 23 20 14 17 24 23 21 18 18 15 17 17 24 27 31 32 35 35 36 38 39 39 42 40 37 33 29 29 29 28 31 31 36 36 35 34 32 31 29 28 26 26 25
8 7 4 4 5 7 17 17 23 15 17 19 17 11 13 13 15 14 15 16 25 28 31 35 37 38 41 43 42 43 40 38 34 33 32 29 29 30 32 37 36 34 33 31 30 28 28 28 28
15 10 4 8 4 8 11 9 13 18 17 22 20 13 14 10 11 10 9 15 21 24 27 31 34 37 38 40 42 42 42 38 37 35 32 31 30 31 31 35 35 35 35 34 30 29 29 28 29
11 11 21 11 18 6 7 17 16 15 14 11 13 13 15 14 13 12 11 16 20 21 27 32 34 35 37 41 41 41 40 41 38 36 35 33 33 30 29 30 33 35 35 32 30 29 29 28 28
26 15 8 7 6 8 12 21 14 9 14 12 14 15 13 12 9 9 10 15 21 22 25 29 33 34 35 36 39 39 39 40 38 35 36 36 34 31 29 29 30 30 30 29 29 28 28 29 29
18 21 20 12 12 14 15 15 16 19 19 20 17 14 7 6 7 8 8 11 14 18 21 26 29 31 32 35 35 36 37 38 37 37 37 37 33 32 32 30 30 30 29 29 29 27 26 28 28
19 23 23 5 7 9 18 21 13 4 6 7 10 1 4 4 5 6 8 9 9 12 16 20 23 28 31 31 33 35 36 35 36 38 38 34 35 33 32 31 31 30 29 29 28 27 27 27 26
Wind_Direction
340 341 320 271 269 237 266 106 9 112 139 74 102 304 3 3 359 22 146 139 140 143 147 139 146 148 143 139 135 137 131 129 125 122 119 110 113 115 107 108 107 101 97 96 97 96 96 93 89
331 331 279 281 267 268 89 78 196 116 82 134 142 205 245 69 67 106 146 153 145 146 148 154 158 155 150 145 139 131 131 120 118 123 121 119 119 117 118 115 110 101 99 100 100 99 95 93 88
317 309 337 315 280 269 334 18 24 106 132 162 177 288 6 62 78 144 127 151 149 148 151 162 158 159 155 152 143 136 130 125 119 125 124 119 123 126 120 116 114 108 107 107 104 103 98 93 90
320 236 257 265 273 325 330 0 331 153 162 212 291 204 129 53 120 149 158 156 155 153 152 166 162 164 161 160 152 147 130 122 127 129 129 131 131 133 126 122 119 117 113 111 109 104 100 96 97
274 235 228 248 271 276 318 324 294 210 146 164 200 84 82 119 124 145 156 163 158 156 157 161 167 169 166 166 162 152 137 134 133 132 136 133 134 134 130 128 124 123 116 115 112 108 106 101 96
250 239 225 229 242 214 297 308 231 245 138 100 232 255 88 135 147 153 162 170 164 161 161 172 173 173 172 171 168 159 153 144 139 147 139 137 134 138 138 134 132 128 123 118 116 113 106 101 95
259 221 238 245 241 248 273 215 214 216 219 203 345 259 83 163 155 160 168 177 171 166 168 170 173 175 178 176 169 165 165 157 154 150 152 145 138 144 144 138 137 137 129 132 124 118 113 105 94
284 260 251 243 239 239 133 189 266 254 221 79 263 264 137 163 158 161 175 181 179 175 174 177 178 172 170 172 174 176 176 170 167 153 156 152 142 146 150 146 143 138 144 146 139 130 122 109 92
277 253 246 244 232 233 138 218 175 32 255 193 188 302 67 140 155 163 181 189 189 186 185 182 180 182 181 177 182 178 182 179 175 163 164 160 148 142 136 161 159 161 157 148 144 145 138 114 95
234 239 250 257 250 252 217 230 198 197 217 224 209 183 166 149 167 174 186 195 199 195 195 190 189 187 186 186 180 178 179 179 169 165 160 163 161 166 173 177 176 175 166 161 157 158 149 113 112
239 242 255 259 271 278 269 217 222 236 246 244 246 193 181 169 184 192 195 201 203 205 201 198 194 193 191 191 185 184 186 189 189 181 175 175 175 181 174 178 184 187 181 173 173 173 168 190 183
253 247 256 269 287 290 269 266 258 239 254 304 288 49 181 195 199 200 201 205 206 208 204 202 198 196 195 194 192 190 191 190 193 192 191 187 184 182 186 187 190 194 199 200 195 198 198 196 196
238 261 251 265 265 266 271 263 264 265 258 246 236 170 207 213 215 211 207 211 214 213 209 204 201 198 196 195 199 197 198 197 198 198 198 196 195 193 192 194 197 199 200 202 204 205 202 206 209
324 287 270 247 264 252 265 262 257 258 256 252 235 220 214 219 218 214 211 213 210 216 211 208 205 202 199 200 200 203 202 204 206 205 202 200 200 198 197 197 200 202 204 205 206 208 209 210 215
294 275 263 248 247 262 273 262 250 256 262 258 253 246 233 222 218 218 217 217 211 214 212 209 207 205 204 203 205 206 206 206 209 209 208 206 204 204 202 202 202 203 205 206 210 212 216 220 220
302 288 256 243 237 236 237 260 259 242 242 252 247 251 234 227 221 220 220 220 216 213 213 209 207 205 207 206 204 207 208 207 207 208 208 209 210 209 207 208 209 206 205 205 211 215 218 223 224
220 247 246 265 270 229 216 268 260 249 253 255 254 248 248 235 217 225 221 218 215 214 213 209 207 206 206 209 207 207 208 208 209 210 210 210 208 208 209 211 213 209 208 211 213 218 219 222 229
203 226 242 248 244 219 248 252 261 251 239 257 257 256 249 246 238 225 222 217 214 212 214 212 207 207 205 206 209 212 212 212 212 213 213 212 209 208 209 211 212 209 210 213 216 218 220 226 232
230 254 257 257 243 293 263 259 260 253 253 252 251 255 255 253 243 238 228 219 215 210 209 211 209 206 204 201 203 208 210 212 215 214 214 213 213 211 210 213 215 212 213 216 218 218 222 224 232
241 248 259 267 259 208 253 264 267 258 254 253 251 249 248 249 248 246 239 215 211 210 207 207 210 207 206 205 205 207 210 214 216 215 214 214 215 213 213 212 215 216 217 222 221 218 221 227 222
236 233 243 246 245 242 271 274 261 256 253 251 246 243 250 245 244 240 231 226 216 213 207 208 207 209 209 208 205 209 212 216 215 216 216 216 214 214 213 215 215 217 220 222 222 220 218 222 220
245 235 232 241 261 244 204 276 268 257 251 231 235 237 242 243 239 239 236 224 218 217 214 208 207 209 208 206 206 203 202 207 210 210 213 213 214 214 215 215 217 219 221 224 224 221 220 221 228
250 248 222 243 242 259 239 261 261 255 256 250 240 229 238 242 239 238 234 228 223 216 215 210 209 209 209 205 207 207 209 216 212 212 213 212 213 216 214 215 217 219 220 225 224 222 221 222 226
226 222 238 250 247 251 238 225 257 241 252 253 247 236 243 240 236 236 237 236 230 218 213 214 213 211 210 207 208 209 210 212 211 210 211 210 210 213 216 216 218 219 220 222 223 223 225 224 228
196 157 220 215 212 235 232 227 244 270 261 267 264 240 242 242 244 236 232 237 238 227 214 212 210 212 211 209 209 210 214 214 214 213 214 210 209 211 214 215 216 219 221 223 224 224 226 226 227
206 208 231 215 199 249 209 239 232 234 252 253 259 256 258 250 236 247 237 239 235 231 225 215 215 216 213 211 212 212 214 216 218 218 217 217 215 217 216 216 216 219 220 223 225 226 227 227 229
233 213 235 267 276 262 227 259 257 263 262 250 253 251 251 254 246 252 252 242 244 231 227 220 218 219 216 215 213 213 214 215 218 219 218 220 220 222 219 214 215 220 223 221 221 224 226 228 232
236 238 220 200 214 220 228 250 259 262 258 258 244 249 248 255 247 246 247 244 240 235 225 225 223 221 220 219 215 215 215 216 219 219 218 220 221 220 218 213 215 216 218 218 218 223 228 228 233
218 233 236 272 240 257 264 256 264 271 274 266 251 239 264 262 276 280 273 265 258 246 229 218 221 222 222 219 218 217 217 217 217 218 220 221 220 218 216 213 212 213 214 215 216 221 223 226 230
252 226 224 227 212 249 251 262 270 293 320 339 330 34 221 266 295 301 281 274 259 250 247 237 225 219 220 222 217 217 217 216 216 218 219 218 217 216 216 212 210 213 214 213 213 217 220 222 225